Location: Trois-Rivi�res
(46.3500°N, 72.5500°W)
Time: 17:18:51
(UTC-04:00)

Vanguard 3 - Visible Passes

Search period start: 21 April 2018 00:00
Search period end: 01 May 2018 00:00
Orbit: 508 x 3264 km, 33.3° (Epoch: 21 April)

Date Brightness Start Highest point End Pass type
(mag) Time Alt. Az. Time Alt. Az. Time Alt. Az.
21 Apr 9.8 03:37:27 17° S 03:37:27 17° S 03:42:15 10° SSE visible
27 Apr 8.3 21:11:29 10° SSW 21:12:41 11° S 21:12:42 11° S visible
29 Apr 8.3 20:55:17 10° SSW 20:56:57 12° S 20:58:18 11° SSE visible
30 Apr 8.6 21:52:59 10° SSW 21:53:21 11° SSW 21:53:21 11° SSW visible
